Weather Roundup
Issued by NWS Chicago, IL

Home | Current Version | Previous Version | Graphics & Text | Print | Product List | Glossary On
Versions: 1 2 3 4 5 6 7 8 9 10 11 12 13 14 15 16 17 18 19 20 21 22 23 24 25 26 27 28 29 30 31 32 33 34 35 36 37 38 39 40 41 42 43 44 45 46 47 48 49 50
000
NZUS59 KLOT 280106
HRRLOT

CHICAGO AREA WEATHER ROUNDUP
NATIONAL WEATHER SERVICE CHICAGO/ROMEOVILLE IL
700 PM CST THU NOV 27 2014

NOTE: "FAIR" INDICATES FEW OR NO CLOUDS BELOW 12,000 FEET WITH NO
SIGNIFICANT WEATHER AND/OR OBSTRUCTIONS TO VISIBILITY.

* THESE STATIONS ARE NOT UNDER NWS QUALITY CONTROL. THEY ALSO MAY NOT
  REPORT WEATHER SUCH AS PRECIPITATION OR FOG.

ILZ005-006-012>014-019>023-280200-
NORTHEAST ILLINOIS

CITY           SKY/WX    TMP DP  RH WIND       PRES   REMARKS
OHARE          MOCLDY    19  10  68 NW7       30.39S WCI  10
MIDWAY         MOCLDY    23  11  60 N10       30.40S WCI  12
AURORA         MOCLDY    13   7  77 W6        30.40F WCI   4
LANSING*       LGT SNOW  24  17  74 W7        30.40S WCI  16
JOLIET*        CLEAR     19  12  73 CALM      30.41F
WAUKEGAN       PTCLDY    16  11  80 NW3       30.39F
DUPAGE AIRPORT CLOUDY    20  12  71 N6        30.39F WCI  12
WHEELING       CLEAR     17   9  70 NW5       30.42S WCI  10
KANKAKEE*      FLURRIES N/A N/A N/A NW6       30.42S
MORRIS*        MOCLDY    20  15  79 NW3       30.41S
LEWIS AIRPORT* CLEAR     18  13  82 NW3       30.40F
NORTHERLY IS     N/A     23  12  62 NW7         N/A  WCI  15
$$

WIZ051-052-058>065-066-070>072-280200-
SOUTHEAST WISCONSIN

CITY           SKY/WX    TMP DP  RH WIND       PRES   REMARKS
MILWAUKEE        N/A     17   7  64 NW5       30.39F WCI  10
KENOSHA*       FLURRIES  14   7  73 NW5       30.39F WCI   6
RACINE*        CLEAR     16   8  71 W5        30.41S WCI   9
BURLINGTON     CLEAR      9   6  86 CALM      30.39S
WAUKESHA       MOCLDY    12   7  79 W8        30.39S WCI   1
WEST BEND      PTCLDY    12   7  79 CALM      30.37F
$$

INZ001>003-010>013-019-020-280200-
NORTHWEST INDIANA

CITY           SKY/WX    TMP DP  RH WIND       PRES   REMARKS
GARY*          CLOUDY    25  14  63 W8        30.40S WCI  16
MICHIGAN CITY* NOT AVBL
RENSSELAER*    NOT AVBL
VALPARAISO     CLOUDY    23  12  62 NW8       30.38F WCI  14
$$

LMZ740>746-280200-
SOUTHERN LAKE MICHIGAN

STATION/POSITION TIME  SKY/WX   TEMP WIND        PRES    VSBY
                                AIR  DIR/SP/G
                 (UTC)          (F)  (DEG/KT/KT) (MB)    (MI)
HARRISON CRIB    0100            21  320/ 14/ 18   N/A
BURNHAM HARBOR   0100            22  320/  6/ 11   N/A
CALUMET HARBOR   0100            23  300/  6/ 10 1028.0S
BURNS HARBOR     NOT AVBL
MICHIGAN CITY    0100            25  270/ 14/ 17   N/A
$$

ABBREVIATIONS USED IN REMARKS
   TC - TEMPERATURE IN CELSIUS
  WCI - WIND CHILL INDEX
   HX - HEAT INDEX
  VSB - VISIBILITY
$$



USA.gov is the U.S. government's official web portal to all federal, state and local government web resources and services.